Location: Minneapolis
(45.0000°N, 93.0000°W)
Time: 07:07:45
(UTC-05:00)

Vanguard 3 - Visible Passes

Search period start: 25 June 2018 00:00
Search period end: 05 July 2018 00:00
Orbit: 508 x 3264 km, 33.3° (Epoch: 24 June)

Date Brightness Start Highest point End Pass type
(mag) Time Alt. Az. Time Alt. Az. Time Alt. Az.
25 Jun 8.5 04:12:11 14° SW 04:15:47 28° SSE 04:22:16 10° ESE visible
26 Jun 8.5 03:02:31 18° SSE 03:02:35 18° SSE 03:06:36 10° ESE visible
27 Jun 8.2 03:57:26 17° SSW 03:59:57 25° S 04:05:34 10° ESE visible
28 Jun 8.6 02:47:49 17° SE 02:47:49 17° SE 02:50:17 10° ESE visible
29 Jun 8.0 03:42:49 20° SSW 03:44:11 23° S 03:48:57 10° ESE visible
30 Jun 8.9 02:33:17 12° SE 02:33:17 12° SE 02:34:05 10° SE visible
30 Jun 8.5 04:38:02 10° SW 04:41:49 22° S 04:47:05 10° SE visible
01 Jul 8.1 03:28:25 20° S 03:28:26 20° S 03:32:24 10° SE visible
02 Jul 8.4 04:23:38 13° SW 04:26:04 18° S 04:30:07 10° SE visible
03 Jul 8.6 03:14:20 15° SSE 03:14:20 15° SSE 03:15:56 10° SE visible
04 Jul 8.4 04:09:45 14° SSW 04:10:20 14° S 04:13:03 10° SSE visible
